Simultaneous Nadir Overpasses (SNOs) Predictions

Prediction of SNOs between LANDSAT-8 and METOP-B Satellite Orbit:

Table of predicted SNOs for the next 14.0 days since TLE Epoch: 7/30/2016
Index Date (LANDSAT-8) Time (LANDSAT-8) Lat,Lon (LANDSAT-8) SZA (LANDSAT-8 ) Date (METOP-B) Time (METOP-B) Lat,Lon (METOP-B) SZA (METOP-B ) Distance(km) Time Diff (sec)
1 07/30/2016 18:26:34 -81.07, 122.64 115.27 07/30/2016 18:25:31 -81.06, 122.46 115.32 3.16 63
2 07/30/2016 19:15:59 81.10, -69.25 64.82 07/30/2016 19:16:09 81.10, -69.22 64.82 0.71 10
3 08/02/2016 14:00:50 -81.07,-171.03 114.57 08/02/2016 13:59:56 -81.06,-171.15 114.61 2.08 54
4 08/02/2016 14:50:15 81.10, -2.94 65.51 08/02/2016 14:50:34 81.10, -2.87 65.53 1.16 19
5 08/05/2016 09:35:04 -81.08,-104.35 113.78 08/05/2016 09:34:19 -81.08,-104.40 113.81 0.93 45
6
